WZZ978 OOMS-LZIB

Flight info

Callsign WZZ978
Flight time N/A
Altitude 32000
Route ITLAK DCT NALKI G652 TOKRA DCT MEDPO DCT BOSOB DCT ITRUX Y511 NALBA/N0473F340 Y511 PMA Z712 WEJ L677 CVO L617 MENKU/N0458F360 Y661 ANTAR UN133 GUDIS DCT SOTIX DCT RIGRO DCT KOROS DCT ATFIR N133 OGOTA DCT RESLA DCT LOMOS DCT PADGU DCT GITMU DCT BALUX DCT BODZA DCT XOMBA
Aircraft A321/M-SDE3FGHIRWY/LB1

Departure

Time N/A
Airport Muscat International Airport (OOMS)

Arrival

Time 2026-04-27 22:03
Airport M. R. Štefánik Airport (LZIB)
Time Latitude Longitude Altitude Speed Heading
2026-04-27 17:36 24.17032 40.49901 31896 ft 411 kts 297°
2026-04-27 17:36 24.18667 40.47296 31897 ft 418 kts 298°
2026-04-27 17:37 24.22033 40.42026 31892 ft 426 kts 298°
2026-04-27 17:37 24.25475 40.36698 32049 ft 429 kts 298°
2026-04-27 17:37 24.27199 40.34031 32173 ft 429 kts 298°
2026-04-27 17:38 24.28922 40.31363 32292 ft 429 kts 298°
2026-04-27 17:38 24.30642 40.28695 32414 ft 428 kts 298°
2026-04-27 17:38 24.32357 40.26035 32542 ft 428 kts 298°
2026-04-27 17:38 24.34071 40.23369 32669 ft 427 kts 298°
2026-04-27 17:39 24.35781 40.20705 32788 ft 427 kts 298°
2026-04-27 17:39 24.37489 40.18045 32910 ft 426 kts 298°
2026-04-27 17:39 24.39172 40.15424 33034 ft 426 kts 298°
2026-04-27 17:39 24.40875 40.12772 33161 ft 425 kts 298°
2026-04-27 17:40 24.42573 40.10123 33286 ft 424 kts 298°
2026-04-27 17:40 24.44265 40.07477 33420 ft 423 kts 298°
2026-04-27 17:40 24.45952 40.04835 33546 ft 422 kts 298°
2026-04-27 17:40 24.47636 40.02200 33678 ft 421 kts 298°
2026-04-27 17:41 24.49317 39.99573 33838 ft 419 kts 298°
2026-04-27 17:41 24.52678 39.94322 33913 ft 422 kts 298°
2026-04-27 17:42 24.56056 39.89036 33917 ft 425 kts 298°
2026-04-27 17:42 24.59454 39.83698 33920 ft 428 kts 298°
2026-04-27 17:43 24.62879 39.78319 33923 ft 431 kts 298°
2026-04-27 17:43 24.66300 39.72949 34302 ft 424 kts 298°
2026-04-27 17:43 24.67984 39.70316 34542 ft 420 kts 298°
2026-04-27 17:44 24.69659 39.67682 34465 ft 420 kts 298°
2026-04-27 17:44 24.73006 39.62403 34465 ft 421 kts 298°
2026-04-27 17:45 24.76349 39.57120 34465 ft 421 kts 298°
2026-04-27 17:45 24.79697 39.51837 34462 ft 421 kts 298°
2026-04-27 17:46 24.83032 39.46569 34102 ft 417 kts 298°
2026-04-27 17:46 24.84673 39.43980 33893 ft 407 kts 298°
2026-04-27 17:46 24.86278 39.41451 33913 ft 401 kts 297°
2026-04-27 17:47 24.89454 39.36426 33907 ft 399 kts 297°
2026-04-27 17:47 24.92597 39.31381 33917 ft 399 kts 293°
2026-04-27 17:48 24.95151 39.25949 33910 ft 402 kts 290°
2026-04-27 17:48 24.97674 39.20408 33915 ft 407 kts 290°
2026-04-27 17:49 25.00214 39.14803 33915 ft 411 kts 290°
2026-04-27 17:49 25.02792 39.09157 33916 ft 413 kts 290°
2026-04-27 17:50 25.05373 39.03499 33913 ft 413 kts 290°
2026-04-27 17:50 25.09212 38.95052 33915 ft 412 kts 290°
2026-04-27 17:51 25.11774 38.89402 33919 ft 412 kts 290°
2026-04-27 17:51 25.14333 38.83742 33922 ft 412 kts 290°
2026-04-27 17:52 25.16899 38.78084 33921 ft 412 kts 290°
2026-04-27 17:52 25.19461 38.72423 33923 ft 412 kts 290°
2026-04-27 17:53 25.22019 38.66756 33922 ft 412 kts 290°
2026-04-27 17:53 25.24577 38.61093 33918 ft 412 kts 290°
2026-04-27 17:54 25.27128 38.55434 33923 ft 411 kts 290°
2026-04-27 17:54 25.29665 38.49777 33922 ft 411 kts 290°
2026-04-27 17:55 25.32199 38.44115 33923 ft 411 kts 290°
2026-04-27 17:55 25.34740 38.38458 33928 ft 411 kts 290°
2026-04-27 17:56 25.37278 38.32797 33918 ft 411 kts 290°
2026-04-27 17:56 25.39794 38.27173 33931 ft 411 kts 290°
2026-04-27 17:57 25.42325 38.21508 33933 ft 411 kts 290°
2026-04-27 17:57 25.44854 38.15845 33931 ft 410 kts 290°
2026-04-27 17:58 25.47384 38.10179 33935 ft 411 kts 289°
2026-04-27 17:58 25.49912 38.04506 33937 ft 411 kts 290°
2026-04-27 17:59 25.52431 37.98833 33938 ft 411 kts 290°
2026-04-27 17:59 25.54953 37.93146 33944 ft 412 kts 290°
2026-04-27 18:00 25.57485 37.87458 33940 ft 413 kts 292°
2026-04-27 18:00 25.60847 37.82179 33942 ft 422 kts 299°
2026-04-27 18:01 25.64384 37.76982 33942 ft 423 kts 299°
2026-04-27 18:01 25.67933 37.71780 33942 ft 423 kts 299°
2026-04-27 18:02 25.71468 37.66562 33945 ft 423 kts 299°
2026-04-27 18:02 25.74990 37.61334 33948 ft 424 kts 299°
2026-04-27 18:03 25.78499 37.56130 33946 ft 424 kts 299°
2026-04-27 18:03 25.82038 37.50891 33943 ft 424 kts 299°
2026-04-27 18:04 25.85580 37.45651 33942 ft 424 kts 299°
2026-04-27 18:04 25.89123 37.40402 33942 ft 424 kts 299°
2026-04-27 18:05 25.92659 37.35142 33940 ft 425 kts 299°
2026-04-27 18:05 25.96189 37.29873 33942 ft 425 kts 299°
2026-04-27 18:06 25.99721 37.24597 33940 ft 425 kts 299°
2026-04-27 18:06 26.03257 37.19326 33939 ft 425 kts 299°
2026-04-27 18:07 26.06791 37.14056 33937 ft 425 kts 299°
2026-04-27 18:07 26.10320 37.08785 33936 ft 425 kts 299°
2026-04-27 18:08 26.13843 37.03512 33939 ft 424 kts 299°
2026-04-27 18:08 26.17362 36.98241 33935 ft 424 kts 299°
2026-04-27 18:09 26.20848 36.93006 33933 ft 423 kts 299°
2026-04-27 18:09 26.24350 36.87747 33937 ft 423 kts 299°
2026-04-27 18:10 26.27849 36.82482 33927 ft 423 kts 299°
2026-04-27 18:10 26.31343 36.77217 33918 ft 422 kts 299°
2026-04-27 18:11 26.34831 36.71954 33913 ft 422 kts 299°
2026-04-27 18:11 26.38319 36.66697 33917 ft 422 kts 299°
2026-04-27 18:12 26.41806 36.61439 33916 ft 421 kts 299°
2026-04-27 18:12 26.45282 36.56174 33914 ft 421 kts 299°
2026-04-27 18:13 26.48750 36.50912 33917 ft 421 kts 299°
2026-04-27 18:13 26.52224 36.45638 33921 ft 421 kts 299°
2026-04-27 18:14 26.55693 36.40377 33929 ft 421 kts 299°
2026-04-27 18:14 26.59158 36.35101 33919 ft 421 kts 299°
2026-04-27 18:15 26.62630 36.29824 33921 ft 421 kts 299°
2026-04-27 18:15 26.65511 36.25441 33923 ft 421 kts 299°
2026-04-27 18:16 26.68980 36.20162 33918 ft 421 kts 299°
2026-04-27 18:16 26.72445 36.14877 33917 ft 421 kts 300°
2026-04-27 18:17 26.76473 36.08734 33917 ft 421 kts 300°
2026-04-27 18:17 26.79375 36.04299 33916 ft 421 kts 300°
2026-04-27 18:18 26.82830 35.98999 33916 ft 421 kts 300°
2026-04-27 18:18 26.86261 35.93729 33904 ft 422 kts 300°
2026-04-27 18:19 26.89716 35.88420 33911 ft 422 kts 300°
2026-04-27 18:19 26.93169 35.83116 33914 ft 422 kts 300°
2026-04-27 18:20 26.96624 35.77800 33913 ft 422 kts 300°
2026-04-27 18:20 27.00076 35.72479 33910 ft 422 kts 300°
2026-04-27 18:21 27.03528 35.67149 33908 ft 422 kts 300°
2026-04-27 18:21 27.06975 35.61823 33918 ft 422 kts 300°
2026-04-27 18:22 27.10430 35.56486 33909 ft 423 kts 300°
2026-04-27 18:22 27.13889 35.51143 33906 ft 423 kts 300°
2026-04-27 18:23 27.17343 35.45787 33910 ft 424 kts 300°
2026-04-27 18:23 27.20796 35.40420 33904 ft 424 kts 300°
2026-04-27 18:24 27.24256 35.35047 33907 ft 425 kts 300°
2026-04-27 18:24 27.27714 35.29663 33912 ft 425 kts 300°
2026-04-27 18:25 27.31173 35.24270 33914 ft 425 kts 300°
2026-04-27 18:25 27.34612 35.18905 33914 ft 426 kts 300°
2026-04-27 18:26 27.38077 35.13504 33916 ft 426 kts 300°
2026-04-27 18:26 27.41546 35.08084 33910 ft 427 kts 300°
2026-04-27 18:27 27.45010 35.02654 33915 ft 427 kts 300°
2026-04-27 18:27 27.48475 34.97219 33918 ft 427 kts 300°
2026-04-27 18:28 27.52133 34.91921 33912 ft 434 kts 310°
2026-04-27 18:28 27.56557 34.87254 33916 ft 436 kts 311°
2026-04-27 18:29 27.60983 34.82594 33914 ft 436 kts 310°
2026-04-27 18:29 27.65405 34.77921 33916 ft 436 kts 310°
2026-04-27 18:30 27.69819 34.73241 33910 ft 435 kts 311°
2026-04-27 18:30 27.74229 34.68563 33910 ft 435 kts 311°
2026-04-27 18:31 27.78635 34.63884 33898 ft 434 kts 311°
2026-04-27 18:31 27.83038 34.59209 33886 ft 434 kts 311°
2026-04-27 18:32 27.87434 34.54530 33877 ft 434 kts 311°
2026-04-27 18:32 27.91823 34.49850 33867 ft 434 kts 311°
2026-04-27 18:33 27.96189 34.45193 33897 ft 434 kts 311°
2026-04-27 18:33 28.00489 34.40414 33882 ft 430 kts 304°
2026-04-27 18:34 28.04272 34.35180 33907 ft 430 kts 304°
2026-04-27 18:34 28.08061 34.29938 33896 ft 430 kts 304°
2026-04-27 18:35 28.11856 34.24693 33910 ft 430 kts 305°
2026-04-27 18:35 28.15644 34.19448 33915 ft 430 kts 305°
2026-04-27 18:36 28.19420 34.14199 33935 ft 429 kts 305°
2026-04-27 18:36 28.23190 34.08956 33949 ft 429 kts 305°
2026-04-27 18:37 28.26965 34.03709 33959 ft 429 kts 305°
2026-04-27 18:37 28.30731 33.98453 33960 ft 429 kts 305°
2026-04-27 18:38 28.34494 33.93201 33962 ft 429 kts 305°
2026-04-27 18:38 28.38230 33.87986 33956 ft 428 kts 305°
2026-04-27 18:39 28.41986 33.82735 33959 ft 428 kts 305°
2026-04-27 18:39 28.45735 33.77485 33963 ft 428 kts 305°
2026-04-27 18:40 28.49488 33.72223 33969 ft 428 kts 305°
2026-04-27 18:40 28.53238 33.66959 33987 ft 428 kts 305°
2026-04-27 18:41 28.56991 33.61696 33979 ft 428 kts 305°
2026-04-27 18:41 28.60729 33.56419 33997 ft 428 kts 306°
2026-04-27 18:42 28.63843 33.52035 33979 ft 429 kts 306°
2026-04-27 18:42 28.68221 33.45861 33986 ft 429 kts 306°
2026-04-27 18:43 28.71968 33.40572 33995 ft 429 kts 306°
2026-04-27 18:43 28.75711 33.35282 33988 ft 429 kts 306°
2026-04-27 18:44 28.79441 33.30021 33980 ft 430 kts 306°
2026-04-27 18:44 28.83196 33.24716 33990 ft 430 kts 306°
2026-04-27 18:45 28.86941 33.19396 33989 ft 430 kts 306°
2026-04-27 18:45 28.90676 33.14065 33990 ft 430 kts 306°
2026-04-27 18:46 28.94418 33.08740 33991 ft 430 kts 306°
2026-04-27 18:46 28.98159 33.03411 33996 ft 430 kts 306°
2026-04-27 18:47 29.01900 32.98081 33999 ft 430 kts 306°
2026-04-27 18:47 29.05635 32.92747 33997 ft 430 kts 306°
2026-04-27 18:48 29.09367 32.87414 33996 ft 430 kts 306°
2026-04-27 18:48 29.13093 32.82064 33993 ft 430 kts 306°
2026-04-27 18:49 29.16819 32.76708 33998 ft 430 kts 306°
2026-04-27 18:49 29.20552 32.71349 33999 ft 431 kts 306°
2026-04-27 18:50 29.24265 32.66024 34002 ft 431 kts 306°
2026-04-27 18:50 29.28020 32.60629 34002 ft 431 kts 306°
2026-04-27 18:51 29.31742 32.55255 34004 ft 430 kts 306°
2026-04-27 18:51 29.35417 32.49903 34003 ft 430 kts 306°
2026-04-27 18:52 29.39113 32.44515 34005 ft 430 kts 306°
2026-04-27 18:53 29.44647 32.36428 34013 ft 429 kts 306°
2026-04-27 18:53 29.48328 32.31033 34014 ft 429 kts 306°
2026-04-27 18:54 29.52006 32.25637 34014 ft 429 kts 306°
2026-04-27 18:54 29.55679 32.20251 34012 ft 429 kts 306°
2026-04-27 18:55 29.59356 32.14858 34015 ft 429 kts 306°
2026-04-27 18:55 29.63026 32.09457 34017 ft 429 kts 306°
2026-04-27 18:56 29.66691 32.04051 34017 ft 429 kts 306°
2026-04-27 18:56 29.70363 31.98647 34015 ft 429 kts 306°
2026-04-27 18:57 29.74028 31.93240 34015 ft 429 kts 306°
2026-04-27 18:57 29.77687 31.87825 34015 ft 428 kts 306°
2026-04-27 18:58 29.81268 31.82403 34011 ft 428 kts 305°
2026-04-27 18:58 29.84787 31.76874 34012 ft 428 kts 304°
2026-04-27 18:59 29.88300 31.71341 34010 ft 428 kts 305°
2026-04-27 18:59 29.91828 31.65817 34010 ft 428 kts 305°
2026-04-27 19:00 29.95376 31.60319 34011 ft 428 kts 305°
2026-04-27 19:00 29.98938 31.54829 34028 ft 427 kts 305°
2026-04-27 19:01 30.02493 31.49332 34030 ft 427 kts 305°
2026-04-27 19:01 30.06042 31.43832 34030 ft 427 kts 305°
2026-04-27 19:02 30.09688 31.38416 34027 ft 428 kts 312°
2026-04-27 19:02 30.14036 31.33685 34024 ft 429 kts 315°
2026-04-27 19:03 30.18421 31.28999 34027 ft 429 kts 315°
2026-04-27 19:03 30.22799 31.24305 34028 ft 429 kts 314°
2026-04-27 19:04 30.27174 31.19602 34024 ft 429 kts 314°
2026-04-27 19:04 30.31543 31.14895 34022 ft 430 kts 314°
2026-04-27 19:05 30.35886 31.10208 34021 ft 430 kts 314°
2026-04-27 19:05 30.40256 31.05485 34018 ft 430 kts 314°
2026-04-27 19:06 30.44623 31.00755 34021 ft 430 kts 314°
2026-04-27 19:06 30.48989 30.96025 34019 ft 429 kts 314°
2026-04-27 19:07 30.53357 30.91297 34022 ft 429 kts 314°
2026-04-27 19:07 30.57716 30.86568 34027 ft 429 kts 314°
2026-04-27 19:08 30.62074 30.81830 34027 ft 429 kts 314°
2026-04-27 19:08 30.66428 30.77089 34027 ft 429 kts 314°
2026-04-27 19:09 30.70048 30.73145 34022 ft 429 kts 314°
2026-04-27 19:09 30.74397 30.68399 34033 ft 429 kts 314°
2026-04-27 19:10 30.78736 30.63652 34023 ft 429 kts 314°
2026-04-27 19:10 30.83789 30.58129 34027 ft 428 kts 314°
2026-04-27 19:11 30.87426 30.54155 34029 ft 428 kts 314°
2026-04-27 19:11 30.91763 30.49399 34028 ft 428 kts 314°
2026-04-27 19:12 30.96089 30.44629 34035 ft 428 kts 314°
2026-04-27 19:12 31.00682 30.40221 34030 ft 431 kts 324°
2026-04-27 19:13 31.05753 30.36469 34025 ft 432 kts 324°
2026-04-27 19:13 31.10796 30.32754 34035 ft 431 kts 324°
2026-04-27 19:14 31.15866 30.29010 34034 ft 431 kts 324°
2026-04-27 19:14 31.20929 30.25260 34030 ft 431 kts 324°
2026-04-27 19:15 31.25986 30.21504 34029 ft 431 kts 324°
2026-04-27 19:15 31.31038 30.17755 34030 ft 430 kts 324°
2026-04-27 19:16 31.36095 30.14004 34033 ft 430 kts 324°
2026-04-27 19:16 31.41148 30.10249 34038 ft 430 kts 324°
2026-04-27 19:17 31.46197 30.06485 34035 ft 430 kts 324°
2026-04-27 19:17 31.51245 30.02720 34038 ft 430 kts 324°
2026-04-27 19:18 31.56291 29.98953 34038 ft 430 kts 324°
2026-04-27 19:18 31.61334 29.95182 34045 ft 430 kts 324°
2026-04-27 19:19 31.66380 29.91414 34052 ft 430 kts 324°
2026-04-27 19:19 31.71424 29.87640 34041 ft 430 kts 324°
2026-04-27 19:20 31.76455 29.83856 34043 ft 430 kts 324°
2026-04-27 19:20 31.81488 29.80059 34052 ft 430 kts 324°
2026-04-27 19:21 31.86527 29.76266 34055 ft 430 kts 324°
2026-04-27 19:21 31.91536 29.72500 34051 ft 430 kts 324°
2026-04-27 19:22 31.96573 29.68702 34055 ft 430 kts 324°
2026-04-27 19:22 32.01597 29.64897 34062 ft 430 kts 324°
2026-04-27 19:23 32.06631 29.61088 34059 ft 430 kts 324°
2026-04-27 19:23 32.11668 29.57278 34062 ft 430 kts 324°
2026-04-27 19:24 32.16705 29.53463 34059 ft 430 kts 324°
2026-04-27 19:24 32.21738 29.49640 34063 ft 430 kts 324°
2026-04-27 19:25 32.26767 29.45807 34060 ft 430 kts 324°
2026-04-27 19:25 32.31797 29.41973 34063 ft 430 kts 324°
2026-04-27 19:26 32.36826 29.38136 34066 ft 430 kts 324°
2026-04-27 19:26 32.41849 29.34302 34062 ft 430 kts 324°
2026-04-27 19:27 32.46871 29.30447 34062 ft 430 kts 324°
2026-04-27 19:27 32.51891 29.26590 34061 ft 430 kts 324°
2026-04-27 19:28 32.56913 29.22730 34062 ft 430 kts 324°
2026-04-27 19:28 32.61935 29.18869 34061 ft 430 kts 324°
2026-04-27 19:29 32.66959 29.15010 34063 ft 430 kts 324°
2026-04-27 19:29 32.71950 29.11172 34061 ft 430 kts 324°
2026-04-27 19:30 32.76971 29.07303 34062 ft 430 kts 324°
2026-04-27 19:30 32.81989 29.03439 34063 ft 430 kts 324°
2026-04-27 19:31 32.87006 28.99557 34061 ft 430 kts 324°
2026-04-27 19:31 32.92024 28.95673 34065 ft 430 kts 324°
2026-04-27 19:32 32.97040 28.91779 34065 ft 430 kts 324°
2026-04-27 19:32 33.02054 28.87879 34062 ft 430 kts 324°
2026-04-27 19:33 33.07074 28.83982 34061 ft 431 kts 324°
2026-04-27 19:33 33.12089 28.80072 34063 ft 431 kts 324°
2026-04-27 19:34 33.17239 28.76387 34084 ft 432 kts 327°
2026-04-27 19:34 33.22527 28.72957 34215 ft 433 kts 328°
2026-04-27 19:35 33.27825 28.69516 34312 ft 433 kts 328°
2026-04-27 19:35 33.33086 28.65996 34406 ft 433 kts 327°
2026-04-27 19:36 33.38337 28.62444 34490 ft 434 kts 327°
2026-04-27 19:36 33.43556 28.58915 34594 ft 434 kts 327°
2026-04-27 19:37 33.48817 28.55366 34692 ft 434 kts 327°
2026-04-27 19:37 33.54074 28.51816 34788 ft 434 kts 327°
2026-04-27 19:38 33.59337 28.48251 34879 ft 434 kts 327°
2026-04-27 19:38 33.64601 28.44683 34978 ft 435 kts 327°
2026-04-27 19:39 33.69871 28.41116 35077 ft 435 kts 327°
2026-04-27 19:39 33.75137 28.37538 35170 ft 435 kts 327°
2026-04-27 19:40 33.80400 28.33952 35272 ft 435 kts 327°
2026-04-27 19:40 33.85661 28.30362 35372 ft 435 kts 327°
2026-04-27 19:41 33.90928 28.26775 35470 ft 435 kts 327°
2026-04-27 19:41 33.96182 28.23178 35566 ft 435 kts 327°
2026-04-27 19:42 34.01450 28.19577 35675 ft 435 kts 327°
2026-04-27 19:42 34.06719 28.15966 35772 ft 436 kts 327°
2026-04-27 19:43 34.11990 28.12348 35889 ft 435 kts 327°
2026-04-27 19:43 34.14622 28.10545 36028 ft 435 kts 327°
2026-04-27 19:43 34.17256 28.08732 36059 ft 436 kts 327°
2026-04-27 19:44 34.22492 28.05125 36056 ft 436 kts 327°
2026-04-27 19:44 34.27765 28.01493 36056 ft 436 kts 327°
2026-04-27 19:45 34.33037 27.97865 36054 ft 437 kts 327°
2026-04-27 19:45 34.38318 27.94230 36058 ft 437 kts 327°
2026-04-27 19:46 34.43600 27.90576 36064 ft 438 kts 327°
2026-04-27 19:46 34.48888 27.86909 36063 ft 438 kts 327°
2026-04-27 19:47 34.54181 27.83233 36071 ft 439 kts 327°
2026-04-27 19:47 34.59477 27.79546 36071 ft 439 kts 327°
2026-04-27 19:48 34.64776 27.75854 36073 ft 439 kts 327°
2026-04-27 19:48 34.70073 27.72166 36069 ft 439 kts 327°
2026-04-27 19:49 34.75378 27.68467 36068 ft 440 kts 327°
2026-04-27 19:49 34.80684 27.64758 36064 ft 440 kts 327°
2026-04-27 19:50 34.85989 27.61038 36069 ft 440 kts 327°
2026-04-27 19:50 34.91350 27.57388 36068 ft 444 kts 329°
2026-04-27 19:51 34.96850 27.54035 36069 ft 445 kts 330°
2026-04-27 19:51 35.02415 27.50746 36070 ft 444 kts 330°
2026-04-27 19:52 35.07945 27.47397 36065 ft 443 kts 330°
2026-04-27 19:52 35.13441 27.43999 36065 ft 443 kts 329°
2026-04-27 19:53 35.21690 27.38892 36056 ft 443 kts 330°
2026-04-27 19:53 35.27195 27.35495 36054 ft 443 kts 330°
2026-04-27 19:54 35.32708 27.32100 36052 ft 444 kts 330°
2026-04-27 19:54 35.38222 27.28693 36049 ft 444 kts 330°
2026-04-27 19:55 35.43737 27.25272 36051 ft 444 kts 330°
2026-04-27 19:55 35.49252 27.21836 36051 ft 445 kts 330°
2026-04-27 19:56 35.54770 27.18406 36051 ft 445 kts 330°
2026-04-27 19:56 35.60298 27.14963 36054 ft 446 kts 330°
2026-04-27 19:57 35.65795 27.11536 36056 ft 446 kts 330°
2026-04-27 19:57 35.71334 27.08076 36057 ft 446 kts 330°
2026-04-27 19:58 35.76873 27.04606 36061 ft 447 kts 330°
2026-04-27 19:58 35.82415 27.01124 36061 ft 447 kts 330°
2026-04-27 19:59 35.87965 26.97640 36058 ft 448 kts 330°
2026-04-27 19:59 35.93515 26.94153 36058 ft 448 kts 330°
2026-04-27 20:00 35.99077 26.90654 36060 ft 449 kts 330°
2026-04-27 20:00 36.04644 26.87147 36059 ft 449 kts 330°
2026-04-27 20:01 36.09273 26.84219 36060 ft 450 kts 330°
2026-04-27 20:01 36.14841 26.80681 36058 ft 450 kts 330°
2026-04-27 20:02 36.20403 26.77138 36058 ft 450 kts 330°
2026-04-27 20:02 36.25986 26.73612 36052 ft 450 kts 330°
2026-04-27 20:03 36.31572 26.70078 36056 ft 451 kts 330°
2026-04-27 20:03 36.37157 26.66529 36063 ft 451 kts 330°
2026-04-27 20:04 36.42741 26.62966 36056 ft 451 kts 330°
2026-04-27 20:04 36.48320 26.59391 36034 ft 451 kts 330°
2026-04-27 20:05 36.53899 26.55818 36037 ft 451 kts 330°
2026-04-27 20:05 36.59449 26.52265 36038 ft 452 kts 330°
2026-04-27 20:06 36.65074 26.48659 36040 ft 452 kts 330°
2026-04-27 20:06 36.70659 26.45072 36042 ft 452 kts 330°
2026-04-27 20:07 36.76218 26.41489 36052 ft 453 kts 330°
2026-04-27 20:07 36.81823 26.37872 36058 ft 454 kts 330°
2026-04-27 20:08 36.87435 26.34238 36061 ft 455 kts 330°
2026-04-27 20:08 36.93058 26.30605 36069 ft 455 kts 330°
2026-04-27 20:09 36.98680 26.26950 36069 ft 456 kts 330°
2026-04-27 20:09 37.04293 26.23271 36070 ft 456 kts 330°
2026-04-27 20:10 37.09928 26.19587 36070 ft 457 kts 330°
2026-04-27 20:10 37.15572 26.15940 36078 ft 457 kts 330°
2026-04-27 20:11 37.21224 26.12281 36081 ft 457 kts 330°
2026-04-27 20:11 37.26868 26.08592 36084 ft 457 kts 330°
2026-04-27 20:12 37.32511 26.04893 36087 ft 457 kts 330°
2026-04-27 20:12 37.38155 26.01191 36079 ft 457 kts 330°
2026-04-27 20:13 37.43797 25.97482 36088 ft 457 kts 330°
2026-04-27 20:13 37.49431 25.93773 36088 ft 457 kts 330°
2026-04-27 20:14 37.55068 25.90053 36089 ft 457 kts 330°
2026-04-27 20:14 37.60671 25.86357 36098 ft 458 kts 330°
2026-04-27 20:15 37.66375 25.82776 36097 ft 458 kts 332°
2026-04-27 20:15 37.72115 25.79275 36095 ft 458 kts 332°
2026-04-27 20:16 37.77841 25.75746 36104 ft 458 kts 331°
2026-04-27 20:16 37.83550 25.72186 36103 ft 457 kts 331°
2026-04-27 20:17 37.89247 25.68619 36105 ft 457 kts 331°
2026-04-27 20:17 37.94948 25.65042 36117 ft 457 kts 331°
2026-04-27 20:18 38.00646 25.61465 36115 ft 457 kts 331°
2026-04-27 20:18 38.06341 25.57885 36128 ft 457 kts 331°
2026-04-27 20:19 38.12030 25.54303 36117 ft 456 kts 331°
2026-04-27 20:19 38.17715 25.50715 36127 ft 456 kts 331°
2026-04-27 20:20 38.23356 25.47142 36127 ft 456 kts 330°
2026-04-27 20:20 38.29074 25.43523 36129 ft 456 kts 330°
2026-04-27 20:21 38.34707 25.39950 36127 ft 456 kts 330°
2026-04-27 20:21 38.40386 25.36352 36135 ft 456 kts 330°
2026-04-27 20:22 38.46061 25.32744 36137 ft 456 kts 330°
2026-04-27 20:22 38.51733 25.29130 36139 ft 455 kts 330°
2026-04-27 20:23 38.57402 25.25508 36142 ft 456 kts 330°
2026-04-27 20:23 38.63069 25.21875 36146 ft 456 kts 330°
2026-04-27 20:24 38.68740 25.18237 36154 ft 456 kts 330°
2026-04-27 20:24 38.74408 25.14607 36156 ft 456 kts 330°
2026-04-27 20:25 38.80073 25.10961 36163 ft 455 kts 330°
2026-04-27 20:25 38.85695 25.07335 36163 ft 455 kts 330°
2026-04-27 20:26 38.91348 25.03686 36166 ft 455 kts 330°
2026-04-27 20:26 38.96997 25.00038 36167 ft 454 kts 330°
2026-04-27 20:27 39.02637 24.96391 36176 ft 454 kts 330°
2026-04-27 20:27 39.08275 24.92730 36175 ft 454 kts 330°
2026-04-27 20:28 39.14129 24.89621 36182 ft 456 kts 336°
2026-04-27 20:28 39.19073 24.87259 36183 ft 456 kts 336°
2026-04-27 20:29 39.26036 24.83925 36183 ft 456 kts 336°
2026-04-27 20:29 39.31984 24.81061 36190 ft 456 kts 336°
2026-04-27 20:30 39.37923 24.78195 36194 ft 456 kts 336°
2026-04-27 20:30 39.43873 24.75328 36183 ft 456 kts 336°
2026-04-27 20:31 39.49824 24.72462 36195 ft 456 kts 336°
2026-04-27 20:31 39.55767 24.69581 36195 ft 456 kts 336°
2026-04-27 20:32 39.61708 24.66693 36205 ft 456 kts 336°
2026-04-27 20:32 39.67607 24.63821 36206 ft 456 kts 336°
2026-04-27 20:33 39.73543 24.60930 36206 ft 455 kts 336°
2026-04-27 20:33 39.79466 24.58031 36209 ft 455 kts 336°
2026-04-27 20:34 39.85397 24.55127 36209 ft 455 kts 336°
2026-04-27 20:34 39.91329 24.52228 36214 ft 455 kts 336°
2026-04-27 20:35 39.97256 24.49325 36214 ft 455 kts 336°
2026-04-27 20:35 40.03177 24.46414 36219 ft 455 kts 336°
2026-04-27 20:36 40.09099 24.43500 36218 ft 455 kts 336°
2026-04-27 20:36 40.15023 24.40584 36217 ft 455 kts 336°
2026-04-27 20:37 40.20935 24.37659 36217 ft 455 kts 336°
2026-04-27 20:37 40.26851 24.34718 36220 ft 455 kts 336°
2026-04-27 20:38 40.32772 24.31781 36220 ft 455 kts 336°
2026-04-27 20:38 40.38694 24.28843 36218 ft 455 kts 336°
2026-04-27 20:39 40.44614 24.25898 36220 ft 455 kts 336°
2026-04-27 20:39 40.50493 24.22956 36219 ft 455 kts 336°
2026-04-27 20:40 40.56413 24.19991 36225 ft 455 kts 336°
2026-04-27 20:40 40.62327 24.17030 36224 ft 455 kts 336°
2026-04-27 20:41 40.68247 24.14064 36220 ft 455 kts 336°
2026-04-27 20:41 40.74164 24.11095 36221 ft 455 kts 336°
2026-04-27 20:42 40.80076 24.08111 36221 ft 455 kts 336°
2026-04-27 20:42 40.85988 24.05121 36222 ft 455 kts 336°
2026-04-27 20:43 40.91902 24.02131 36224 ft 455 kts 336°
2026-04-27 20:43 40.97816 23.99131 36223 ft 455 kts 336°
2026-04-27 20:44 41.03732 23.96133 36221 ft 455 kts 336°
2026-04-27 20:44 41.09640 23.93127 36224 ft 455 kts 335°
2026-04-27 20:45 41.15553 23.90114 36225 ft 455 kts 335°
2026-04-27 20:45 41.21464 23.87098 36228 ft 455 kts 335°
2026-04-27 20:46 41.27372 23.84076 36227 ft 455 kts 335°
2026-04-27 20:46 41.33277 23.81048 36226 ft 455 kts 335°
2026-04-27 20:47 41.39198 23.78088 36216 ft 456 kts 340°
2026-04-27 20:47 41.45504 23.76734 36223 ft 462 kts 350°
2026-04-27 20:48 41.50811 23.76002 36221 ft 461 kts 350°
2026-04-27 20:48 41.58278 23.74946 36224 ft 462 kts 350°
2026-04-27 20:49 41.64628 23.74035 36220 ft 462 kts 350°
2026-04-27 20:49 41.71020 23.73122 36220 ft 462 kts 350°
2026-04-27 20:50 41.77412 23.72208 36219 ft 462 kts 350°
2026-04-27 20:50 41.83803 23.71289 36219 ft 462 kts 350°
2026-04-27 20:51 41.90186 23.70367 36223 ft 461 kts 350°
2026-04-27 20:51 41.96570 23.69444 36218 ft 461 kts 350°
2026-04-27 20:52 42.02946 23.68530 36219 ft 461 kts 351°
2026-04-27 20:52 42.09325 23.67624 36214 ft 461 kts 351°
2026-04-27 20:53 42.14624 23.66853 36216 ft 460 kts 351°
2026-04-27 20:53 42.20995 23.65926 36220 ft 461 kts 351°
2026-04-27 20:54 42.31549 23.64133 36221 ft 457 kts 343°
2026-04-27 20:55 42.36705 23.62354 36226 ft 457 kts 342°
2026-04-27 20:55 42.42863 23.60218 36224 ft 457 kts 343°
2026-04-27 20:56 42.49022 23.58092 36224 ft 456 kts 343°
2026-04-27 20:56 42.55176 23.55960 36223 ft 456 kts 343°
2026-04-27 20:57 42.61289 23.53843 36221 ft 457 kts 344°
2026-04-27 20:57 42.67193 23.50879 36219 ft 452 kts 333°
2026-04-27 20:58 42.72873 23.47205 36221 ft 453 kts 332°
2026-04-27 20:58 42.78565 23.43521 36218 ft 453 kts 333°
2026-04-27 20:59 42.84268 23.39860 36217 ft 453 kts 333°
2026-04-27 20:59 42.89969 23.36189 36218 ft 453 kts 333°
2026-04-27 21:00 42.95669 23.32512 36217 ft 453 kts 333°
2026-04-27 21:00 43.01368 23.28827 36215 ft 453 kts 333°
2026-04-27 21:01 43.07063 23.25135 36211 ft 453 kts 333°
2026-04-27 21:01 43.12750 23.21433 36211 ft 452 kts 333°
2026-04-27 21:02 43.18427 23.17737 36211 ft 452 kts 333°
2026-04-27 21:02 43.24064 23.14059 36205 ft 451 kts 333°
2026-04-27 21:03 43.29725 23.10365 36206 ft 450 kts 333°
2026-04-27 21:03 43.35367 23.06663 36211 ft 449 kts 333°
2026-04-27 21:04 43.40997 23.02956 36201 ft 448 kts 333°
2026-04-27 21:04 43.46623 22.99257 36198 ft 448 kts 333°
2026-04-27 21:05 43.52244 22.95546 36199 ft 448 kts 333°
2026-04-27 21:05 43.57862 22.91832 36200 ft 448 kts 333°
2026-04-27 21:06 43.63473 22.88120 36199 ft 448 kts 333°
2026-04-27 21:06 43.69086 22.84401 36197 ft 447 kts 333°
2026-04-27 21:07 43.74690 22.80669 36195 ft 447 kts 333°
2026-04-27 21:07 43.80284 22.76928 36197 ft 446 kts 333°
2026-04-27 21:08 43.85878 22.73202 36198 ft 446 kts 333°
2026-04-27 21:08 43.91428 22.69496 36194 ft 445 kts 333°
2026-04-27 21:09 43.97006 22.65758 36193 ft 445 kts 333°
2026-04-27 21:09 44.02563 22.62019 36191 ft 444 kts 333°
2026-04-27 21:10 44.08118 22.58282 36190 ft 443 kts 333°
2026-04-27 21:10 44.13665 22.54539 36191 ft 443 kts 333°
2026-04-27 21:11 44.19199 22.50787 36192 ft 442 kts 333°
2026-04-27 21:11 44.24729 22.47045 36194 ft 441 kts 333°
2026-04-27 21:12 44.30249 22.43299 36191 ft 441 kts 333°
2026-04-27 21:12 44.35760 22.39546 36193 ft 440 kts 333°
2026-04-27 21:13 44.41259 22.35798 36195 ft 440 kts 333°
2026-04-27 21:13 44.46757 22.32038 36198 ft 440 kts 333°
2026-04-27 21:14 44.52251 22.28280 36202 ft 439 kts 333°
2026-04-27 21:14 44.57735 22.24502 36206 ft 439 kts 333°
2026-04-27 21:15 44.63203 22.20710 36204 ft 438 kts 333°
2026-04-27 21:15 44.68669 22.16936 36204 ft 437 kts 333°
2026-04-27 21:16 44.74129 22.13177 36213 ft 437 kts 333°
2026-04-27 21:16 44.79581 22.09409 36214 ft 436 kts 333°
2026-04-27 21:17 44.85023 22.05650 36215 ft 436 kts 333°
2026-04-27 21:17 44.90464 22.01887 36216 ft 435 kts 333°
2026-04-27 21:18 44.95892 21.98116 36213 ft 434 kts 333°
2026-04-27 21:18 45.01275 21.94365 36212 ft 434 kts 333°
2026-04-27 21:19 45.06688 21.90581 36214 ft 434 kts 333°
2026-04-27 21:19 45.12094 21.86786 36209 ft 433 kts 333°
2026-04-27 21:20 45.20193 21.81090 36207 ft 433 kts 333°
2026-04-27 21:20 45.25590 21.77282 36204 ft 433 kts 333°
2026-04-27 21:21 45.30986 21.73481 36203 ft 433 kts 333°
2026-04-27 21:21 45.36377 21.69667 36202 ft 433 kts 333°
2026-04-27 21:22 45.41760 21.65841 36195 ft 432 kts 333°
2026-04-27 21:22 45.47141 21.62006 36203 ft 432 kts 331°
2026-04-27 21:23 45.49601 21.59587 36291 ft 430 kts 319°
2026-04-27 21:23 45.51834 21.56750 36438 ft 430 kts 318°
2026-04-27 21:23 45.54066 21.53910 36561 ft 430 kts 318°
2026-04-27 21:23 45.56290 21.51075 36697 ft 430 kts 318°
2026-04-27 21:24 45.58523 21.48224 36823 ft 430 kts 318°
2026-04-27 21:24 45.60742 21.45383 36954 ft 429 kts 318°
2026-04-27 21:24 45.62964 21.42530 37085 ft 429 kts 318°
2026-04-27 21:24 45.65185 21.39679 37218 ft 429 kts 318°
2026-04-27 21:25 45.67408 21.36828 37356 ft 429 kts 317°
2026-04-27 21:25 45.69629 21.33976 37489 ft 429 kts 317°
2026-04-27 21:25 45.71850 21.31122 37624 ft 429 kts 317°
2026-04-27 21:25 45.74066 21.28268 37761 ft 429 kts 317°
2026-04-27 21:26 45.76250 21.25448 37912 ft 429 kts 317°
2026-04-27 21:26 45.78462 21.22587 38056 ft 428 kts 317°
2026-04-27 21:26 45.80670 21.19723 38163 ft 428 kts 317°
2026-04-27 21:26 45.82881 21.16852 38166 ft 429 kts 317°
2026-04-27 21:27 45.87303 21.11118 38168 ft 429 kts 317°
2026-04-27 21:27 45.91732 21.05364 38169 ft 429 kts 317°
2026-04-27 21:28 45.96145 20.99614 38173 ft 429 kts 317°
2026-04-27 21:28 46.00559 20.93846 38171 ft 429 kts 317°
2026-04-27 21:29 46.04971 20.88076 38174 ft 428 kts 317°
2026-04-27 21:29 46.09375 20.82295 38173 ft 428 kts 317°
2026-04-27 21:30 46.13773 20.76508 38173 ft 428 kts 316°
2026-04-27 21:30 46.18163 20.70711 38175 ft 428 kts 316°
2026-04-27 21:31 46.22549 20.64923 38173 ft 427 kts 316°
2026-04-27 21:31 46.26933 20.59120 38171 ft 427 kts 316°
2026-04-27 21:32 46.31284 20.53351 38173 ft 427 kts 316°
2026-04-27 21:32 46.35659 20.47536 38173 ft 427 kts 316°
2026-04-27 21:33 46.40029 20.41709 38164 ft 427 kts 316°
2026-04-27 21:33 46.44393 20.35871 38167 ft 427 kts 316°
2026-04-27 21:34 46.48753 20.30022 38164 ft 427 kts 316°
2026-04-27 21:34 46.53111 20.24166 38169 ft 427 kts 316°
2026-04-27 21:35 46.57471 20.18323 38167 ft 427 kts 316°
2026-04-27 21:35 46.61823 20.12457 38167 ft 427 kts 316°
2026-04-27 21:36 46.66164 20.06566 38175 ft 427 kts 316°
2026-04-27 21:36 46.70505 20.00659 38180 ft 427 kts 316°
2026-04-27 21:37 46.74849 19.94753 38187 ft 427 kts 316°
2026-04-27 21:37 46.79170 19.88895 38189 ft 427 kts 316°
2026-04-27 21:38 46.83355 19.82758 38195 ft 427 kts 307°
2026-04-27 21:38 46.86950 19.75857 38192 ft 427 kts 307°
2026-04-27 21:39 46.90529 19.68933 38193 ft 427 kts 307°
2026-04-27 21:39 46.94100 19.61997 38191 ft 427 kts 307°
2026-04-27 21:40 46.97662 19.55057 38192 ft 427 kts 307°
2026-04-27 21:40 47.01225 19.48105 38188 ft 426 kts 307°
2026-04-27 21:41 47.04780 19.41146 38186 ft 426 kts 307°
2026-04-27 21:41 47.08335 19.34188 38184 ft 426 kts 307°
2026-04-27 21:42 47.11875 19.27230 38181 ft 425 kts 307°
2026-04-27 21:42 47.15404 19.20262 38178 ft 425 kts 306°
2026-04-27 21:43 47.18926 19.13293 38172 ft 423 kts 306°
2026-04-27 21:43 47.20672 19.09839 37737 ft 419 kts 306°
2026-04-27 21:43 47.22406 19.06400 37097 ft 418 kts 306°
2026-04-27 21:44 47.24134 19.02973 36407 ft 418 kts 306°
2026-04-27 21:44 47.25865 18.99539 35722 ft 418 kts 306°
2026-04-27 21:44 47.27596 18.96101 35031 ft 418 kts 306°
2026-04-27 21:44 47.29324 18.92655 34344 ft 418 kts 306°
2026-04-27 21:45 47.31052 18.89203 33558 ft 419 kts 306°
2026-04-27 21:45 47.32785 18.85740 32703 ft 421 kts 306°
2026-04-27 21:45 47.34506 18.82303 31825 ft 424 kts 306°
2026-04-27 21:45 47.36262 18.78790 30915 ft 427 kts 306°
2026-04-27 21:46 47.38031 18.75246 29951 ft 431 kts 306°
2026-04-27 21:46 47.39810 18.71671 28848 ft 434 kts 306°
2026-04-27 21:46 47.41606 18.68061 27750 ft 438 kts 306°
2026-04-27 21:46 47.43416 18.64422 26628 ft 441 kts 306°
2026-04-27 21:47 47.44624 18.61990 25941 ft 445 kts 306°
2026-04-27 21:47 47.46466 18.58274 25463 ft 451 kts 306°
2026-04-27 21:47 47.48324 18.54512 25246 ft 455 kts 306°
2026-04-27 21:47 47.50187 18.50740 25047 ft 451 kts 306°
2026-04-27 21:48 47.52021 18.47028 24422 ft 443 kts 306°
2026-04-27 21:48 47.53825 18.43379 23778 ft 438 kts 306°
2026-04-27 21:48 47.55611 18.39758 22982 ft 433 kts 306°
2026-04-27 21:48 47.57367 18.36179 22056 ft 423 kts 305°
2026-04-27 21:49 47.59071 18.32700 20478 ft 414 kts 305°
2026-04-27 21:49 47.60741 18.29291 19613 ft 397 kts 305°
2026-04-27 21:49 47.62303 18.26109 19389 ft 367 kts 305°
2026-04-27 21:49 47.63754 18.23150 19019 ft 346 kts 305°
2026-04-27 21:50 47.65148 18.20305 18261 ft 337 kts 305°
2026-04-27 21:50 47.66515 18.17508 17316 ft 332 kts 305°
2026-04-27 21:50 47.67868 18.14732 16101 ft 333 kts 305°
2026-04-27 21:50 47.69167 18.12062 15894 ft 305 kts 305°
2026-04-27 21:51 47.70354 18.09620 15757 ft 280 kts 305°
2026-04-27 21:51 47.71463 18.07334 15646 ft 267 kts 305°
2026-04-27 21:51 47.72526 18.05145 15552 ft 254 kts 305°
2026-04-27 21:51 47.73525 18.03088 15400 ft 237 kts 306°
2026-04-27 21:52 47.74460 18.01161 15170 ft 225 kts 306°
2026-04-27 21:52 47.75367 17.99290 14674 ft 222 kts 306°
2026-04-27 21:52 47.76267 17.97431 14157 ft 221 kts 306°
2026-04-27 21:52 47.77162 17.95586 13614 ft 219 kts 306°
2026-04-27 21:53 47.78050 17.93753 13050 ft 218 kts 306°
2026-04-27 21:53 47.78920 17.91953 12505 ft 217 kts 306°
2026-04-27 21:53 47.79796 17.90139 11965 ft 215 kts 306°
2026-04-27 21:53 47.80667 17.88332 11424 ft 214 kts 306°
2026-04-27 21:54 47.81535 17.86534 10909 ft 213 kts 306°
2026-04-27 21:54 47.82399 17.84743 10390 ft 213 kts 306°
2026-04-27 21:54 47.83259 17.82959 9872 ft 212 kts 306°
2026-04-27 21:54 47.84115 17.81181 9311 ft 211 kts 306°
2026-04-27 21:55 47.84903 17.79349 8775 ft 211 kts 298°
2026-04-27 21:55 47.85561 17.77405 8231 ft 210 kts 298°
2026-04-27 21:55 47.86220 17.75470 7710 ft 209 kts 298°
2026-04-27 21:55 47.86877 17.73541 7249 ft 208 kts 298°
2026-04-27 21:56 47.87530 17.71616 7173 ft 210 kts 298°
2026-04-27 21:56 47.88857 17.67717 6918 ft 213 kts 298°
2026-04-27 21:56 47.89543 17.65717 6135 ft 220 kts 300°
2026-04-27 21:57 47.90588 17.63734 5242 ft 279 kts 312°
2026-04-27 21:57 47.91989 17.61379 5278 ft 318 kts 312°
2026-04-27 21:57 47.93450 17.58930 6396 ft 321 kts 312°
2026-04-27 21:57 47.94956 17.56407 6695 ft 323 kts 312°
2026-04-27 21:58 47.96467 17.53874 5670 ft 333 kts 312°
2026-04-27 21:58 47.97940 17.51116 4528 ft 346 kts 305°
2026-04-27 21:58 47.99437 17.48267 3665 ft 350 kts 313°
2026-04-27 21:58 48.01132 17.45690 2812 ft 348 kts 316°
2026-04-27 21:59 48.02848 17.43160 2200 ft 343 kts 315°
2026-04-27 21:59 48.04471 17.40663 2030 ft 326 kts 314°
2026-04-27 21:59 48.05990 17.38305 1988 ft 300 kts 315°
2026-04-27 21:59 48.07351 17.36204 2000 ft 264 kts 315°
2026-04-27 22:00 48.08554 17.34351 1997 ft 233 kts 315°
2026-04-27 22:00 48.09597 17.32741 2029 ft 207 kts 315°
2026-04-27 22:00 48.10524 17.31308 1926 ft 178 kts 315°
2026-04-27 22:00 48.11340 17.30047 1722 ft 161 kts 316°
2026-04-27 22:01 48.12100 17.28873 1516 ft 157 kts 315°
2026-04-27 22:01 48.12838 17.27731 1292 ft 149 kts 315°
2026-04-27 22:01 48.13541 17.26631 1088 ft 144 kts 314°
2026-04-27 22:01 48.14235 17.25556 892 ft 142 kts 316°
2026-04-27 22:02 48.14918 17.24492 698 ft 141 kts 315°
2026-04-27 22:02 48.15600 17.23443 530 ft 141 kts 314°
2026-04-27 22:02 48.16255 17.22437 419 ft 123 kts 314°
2026-04-27 22:02 48.16784 17.21620 421 ft 94 kts 313°
2026-04-27 22:03 48.17092 17.21141 424 ft 16 kts 313°
2026-04-27 22:03 48.17135 17.21061 418 ft 11 kts 299°
2026-04-27 22:03 48.17124 17.21006 416 ft 6 kts 225°
2026-04-27 22:03 48.17093 17.20959 417 ft 7 kts 225°
2026-04-27 22:04 48.17060 17.20910 421 ft 7 kts 225°
2026-04-27 22:04 48.17048 17.20850 430 ft 7 kts 282°
2026-04-27 22:04 48.17082 17.20781 426 ft 11 kts 311°
2026-04-27 22:04 48.17145 17.20683 421 ft 14 kts 314°
2026-04-27 22:05 48.17170 17.20614 426 ft 6 kts 272°
2026-04-27 22:05 48.17157 17.20548 421 ft 7 kts 240°
2026-04-27 22:05 48.17124 17.20495 423 ft 8 kts 224°
2026-04-27 22:05 48.17082 17.20436 424 ft 9 kts 223°
2026-04-27 22:06 48.17036 17.20371 430 ft 9 kts 223°
2026-04-27 22:06 48.16988 17.20303 419 ft 10 kts 224°
2026-04-27 22:06 48.16978 17.20253 432 ft 5 kts 279°
2026-04-27 22:06 48.16994 17.20213 427 ft 2 kts 309°
2026-04-27 22:07 48.17003 17.20201 426 ft 0 kts 314°